Regional Weather Roundup
Issued by NWS

Home | Current Version | Previous Version | Text Only | Print | Product List | Glossary Off
Versions: 1 2 3 4 5 6 7 8 9 10 11 12 13 14 15 16 17 18 19 20 21 22 23 24 25 26 27 28 29 30 31 32 33 34 35 36 37 38 39 40 41 42 43 44 45 46 47 48 49 50

000
ASUS43 KLOT 051800
RWRIL

ILLINOIS REGIONAL WEATHER ROUNDUP
NATIONAL WEATHER SERVICE CHICAGO/ROMEOVILLE IL
1200 PM CST THU MAR 05 2015

NOTE: "FAIR" INDICATES FEW OR NO CLOUDS BELOW 12,000 FEET WITH NO
SIGNIFICANT WEATHER AND/OR OBSTRUCTIONS TO VISIBILITY.

* THESE STATIONS ARE NOT UNDER NWS QUALITY CONTROL. THEY ALSO MAY NOT
  REPORT WEATHER SUCH AS PRECIPITATION OR FOG.

ILZ001-002-007-009-015-016-024-051900-
NORTHWEST ILLINOIS

CITY           SKY/WX    TMP DP  RH WIND       PRES   REMARKS
MOLINE         FAIR      11  -1  58 W13       30.57R WCI  -4
6HR MIN TEMP:   1; 6HR MAX TEMP:  11;

STERLING*      FAIR      14   1  57 W8        30.55R WCI   3
$$

ILZ003-004-008-010-011-017-018-051900-
NORTH CENTRAL ILLINOIS

CITY           SKY/WX    TMP DP  RH WIND       PRES   REMARKS
ROCKFORD       FAIR      11  -5  48 N8        30.53R WCI  -1
6HR MIN TEMP:  -6; 6HR MAX TEMP:  11;

FREEPORT*      FAIR       9  -5  52 W8        30.53S WCI  -3
DE KALB*       FAIR       9  -3  59 NW9       30.50S WCI  -4
$$

ILZ005-006-012>014-019>023-051900-
NORTHEAST ILLINOIS

CITY           SKY/WX    TMP DP  RH WIND       PRES   REMARKS
CHICAGO-OHARE  FAIR      15  -3  44 W13       30.48R WCI   1
6HR MIN TEMP:   3; 6HR MAX TEMP:  15;

CHICAGO-MIDWAY FAIR      19  -2  39 N13       30.49R WCI   6
6HR MIN TEMP:   9; 6HR MAX TEMP:  19;

AURORA         FAIR      10  -3  55 NW14      30.51R WCI  -6
LANSING*       FAIR      18  -3  38 NW9       30.48R WCI   7
WAUKEGAN       FAIR      13  -7  40 NW9       30.48R WCI   1
6HR MIN TEMP:  -1; 6HR MAX TEMP:  13;

DUPAGE AIRPORT FAIR      14  -3  47 NW14      30.49R WCI  -1
6HR MIN TEMP:   1; 6HR MAX TEMP:  14;

WHEELING       FAIR      15  -4  42 N13       30.50R WCI   1
6HR MIN TEMP:   3; 6HR MAX TEMP:  15;

NORTHERLY ISL    N/A     18  -4  37 W12         N/A  WCI   6
$$

LMZ740>746-051900-
SOUTHERN LAKE MICHIGAN

STATION/POSITION SKY/WX   TEMP    WIND        PRES    VSBY  WAVE
                          AIR SEA DIR/SP/G                  HT/PER
                          (F)     (DEG/KT/KT) (MB)    (MI)  (FT/S)
WAUKEGAN HARBOR            12                   N/A
HARRISON CRIB              14     290/  9/ 13   N/A
BURNHAM HARBOR             18     290/ 11/ 13   N/A
CALUMET HARBOR             17     290/  8/ 13 1030.7R
MICHIGAN CITY              18     290/ 16/ 19   N/A
$$

ILZ025>027-034>036-040-047-049-050-058-095>099-051900-
WEST-CENTRAL ILLINOIS

CITY           SKY/WX    TMP DP  RH WIND       PRES   REMARKS
QUINCY         FAIR      14   2  58 NW13      30.58S WCI   0
MACOMB*        FAIR      11   2  66 NW12      30.60S WCI  -3
$$

ILZ028>032-037-038-041>044-048-051>054-059>061-051900-
CENTRAL ILLINOIS

CITY           SKY/WX    TMP DP  RH WIND       PRES   REMARKS
DECATUR        FAIR      16   0  49 NW22G29   30.53R WCI  -2
PEORIA         FAIR      13  -2  51 NW8       30.56S WCI   2
6HR MIN TEMP:   6; 6HR MAX TEMP:  13;

SPRINGFIELD    FAIR      17   2  51 NW16      30.56S WCI   2
6HR MIN TEMP:   9; 6HR MAX TEMP:  17;

TAYLORVILLE    NOT AVBL
$$

ILZ033-039-045-046-055>057-062-063-051900-
EAST-CENTRAL ILLINOIS

CITY           SKY/WX    TMP DP  RH WIND       PRES   REMARKS
CHAMPAIGN      FAIR      14   5  67 NW16      30.50R WCI  -2
MATTOON        FAIR      16   5  62 NW15      30.50R WCI   1
$$

ILZ079-100>102-051900-
SOUTHWEST ILLINOIS

CITY           SKY/WX    TMP DP  RH WIND       PRES   REMARKS
ALTON          PTSUNNY   19   3  49 NW13G23   30.57S WCI   7
BELLEVILLE     PTSUNNY   22   8  52 N8        30.56R WCI  13
CAHOKIA*       FAIR      23  10  57 N16       30.57S WCI  10
$$

ILZ064>066-069>071-074>076-080>082-084>086-088>090-092>094-051900-
SOUTH-CENTRAL ILLINOIS

CITY           SKY/WX    TMP DP  RH WIND       PRES   REMARKS
CARBONDALE     FAIR      22   4  46 N12       30.55R WCI  10
6HR MIN TEMP:  17; 6HR MAX TEMP:  22;

MT. VERNON     FAIR      21   1  42 N12G18    30.54S WCI   9
$$

ILZ067-068-072-073-078-083-087-091-051900-
SOUTHEAST ILLINOIS

CITY           SKY/WX    TMP DP  RH WIND       PRES   REMARKS
LAWRENCEVILLE  FAIR      21   7  54 NW14      30.51R WCI   8
$$

ABBREVIATIONS USED IN REMARKS
   TC - TEMPERATURE IN CELSIUS
  WCI - WIND CHILL INDEX
   HX - HEAT INDEX
  VSB - VISIBILITY
$$




USA.gov is the U.S. government's official web portal to all federal, state and local government web resources and services.